Miscellaneous Local Product
Issued by NWS Hastings, NE

Home | Current Version | Previous Version | Graphics & Text | Print | Product List | Glossary On
Versions: 1 2 3 4 5 6 7 8 9 10 11 12 13 14 15 16 17 18 19 20 21 22 23 24 25 26 27 28 29 30 31 32 33 34 35 36 37 38 39 40 41 42 43 44 45 46 47 48 49 50
000
AXUS43 KGID 201802
MISGRI

GID CWA HOURLY WEATHER ROUNDUP
NATIONAL WEATHER SERVICE HASTINGS NE
100 PM CDT MON OCT 20 2014

NOTE: "FAIR" INDICATES FEW OR NO CLOUDS BELOW 12,000 FEET WITH NO
SIGNIFICANT WEATHER AND/OR OBSTRUCTIONS TO VISIBILITY.

...SOUTH CENTRAL NEBRASKA...

CITY           SKY/WX    TMP DP  RH WIND       PRES   REMARKS
GRAND ISLAND   SUNNY     69  40  34 E6        30.13F
HASTINGS       SUNNY     69  41  36 SE7       30.12F
KEARNEY        SUNNY     68  43  40 E6        30.13F
ORD            SUNNY     66  40  38 SE7       30.12F
YORK           SUNNY     66  41  39 CALM      30.12F
AURORA         SUNNY     69  37  30 CALM      30.12F
LEXINGTON      SUNNY     72  44  36 S5        30.13S
HOLDREGE       SUNNY     70  41  35 CALM      30.13S
HEBRON         SUNNY     70  40  33 CALM      30.11F

...NEBRASKA PANHANDLE...

CITY           SKY/WX    TMP DP  RH WIND       PRES   REMARKS
CHADRON        SUNNY     76  45  33 S16G24    30.03F HAZE
ALLIANCE       SUNNY     73  36  25 S17       30.10F
SCOTTSBLUFF    SUNNY     70  47  43 SE9       30.09F
SIDNEY         SUNNY     71  39  31 S15       30.14F

...WESTERN AND NORTH CENTRAL NEBRASKA...

CITY           SKY/WX    TMP DP  RH WIND       PRES   REMARKS
VALENTINE      SUNNY     73  38  27 S12       30.09F
AINSWORTH      SUNNY     70  38  31 SE9       30.11F
ONEILL         SUNNY     67  40  36 S5        30.13F
BROKEN BOW     SUNNY     70  44  39 SE8       30.12F
IMPERIAL       SUNNY     71  43  36 S10       30.14F
NORTH PLATTE   SUNNY     71  44  37 MISG      30.12F
MCCOOK         SUNNY     70  46  42 S6        30.15S

...EASTERN NEBRASKA...

CITY           SKY/WX    TMP DP  RH WIND       PRES   REMARKS
NORFOLK        SUNNY     68  35  29 N6        30.11F
SO SIOUX CITY  SUNNY     69  41  36 NW10      30.09F
TEKAMAH        SUNNY     70  39  32 NW5       30.09F
COLUMBUS       SUNNY     68  39  34 W3        30.13F
ALBION         SUNNY     67  40  37 S3        30.12F
OMAHA EPPLEY   SUNNY     69  40  34 CALM      30.09F
OFFUTT AFB     SUNNY     68  43  40 VRB3      30.08F
MILLARD        SUNNY     66  46  47 NW3       30.10S
LINCOLN        SUNNY     69  42  37 VRB5      30.11F
NEBRASKA CITY  SUNNY     67  34  28 N5        30.09F
BEATRICE       SUNNY     70  43  37 N6        30.10F
FALLS CITY     SUNNY     72  43  35 VRB6      30.07F

...NORTHERN KANSAS...

CITY           SKY/WX    TMP DP  RH WIND       PRES   REMARKS
GOODLAND       SUNNY     73  43  33 S15G23    30.17F
HILL CITY      SUNNY     74  46  36 SE7       30.13F
NORTON         CLEAR     75  37  25 E3        30.11
PHILLIPSBURG   SUNNY     75  45  33 E6        30.12F HAZE
SMITH CENTER   SUNNY     73  43  33 CALM      30.11F
BELOIT         SUNNY     72  46  40 NE7       30.10S
HAYS           SUNNY     72  50  46 E3        30.12F
RUSSELL        SUNNY     74  51  44 N5        30.10F
CONCORDIA      SUNNY     72  48  42 NE7       30.10F
SALINA         SUNNY     74  55  51 VRB3      30.09F
TOPEKA         SUNNY     71  53  52 N5        30.07F



USA.gov is the U.S. government's official web portal to all federal, state and local government web resources and services.